Topeka, KS

4:02 AM CST on December 09, 2016 (GMT -0600)
Forbes

Weather History for KFOE - February, 2014

Change the Weather History Date:

Sunday, February 16, 2014

  Actual Average Record
Temperature  
Mean Temperature 32 °F -  
Max Temperature 39 °F 40 °F 74 °F (1961)
Min Temperature 24 °F 22 °F -8 °F (1979)
Degree Days  
Heating Degree Days 34    
Moisture  
Dew Point 26 °F    
Average Humidity 78    
Maximum Humidity 91    
Minimum Humidity 65    
Precipitation  
Precipitation 0.00 in - - ()
Sea Level Pressure  
Sea Level Pressure 30.07 in    
Wind  
Wind Speed 8 mph (East)    
Max Wind Speed 14 mph    
Max Gust Speed -    
Visibility 9 miles    
Events      
Averages and records for this station are not official NWS values.
T = Trace of Precipitation, MM = Missing Value Source: NWS Daily Summary

Daily Weather History Graph

Daily Weather History Graph

Search for Another Location

Airport or City:

Trip Planner

Search our weather history database for the weather conditions in past years. The results will help you decide how hot, cold, wet, or windy it might be!

Date:

Astronomy

Feb. 16, 2014 Rise Set
Actual Time 7:12 AM CST 6:01 PM CST
Civil Twilight 6:45 AM CST 6:28 PM CST
Nautical Twilight 6:14 AM CST 6:59 PM CST
Astronomical Twilight 5:43 AM CST 7:30 PM CST
Moon 7:57 PM CST (2/16) 7:44 AM CST (2/16)
Length of Visible Light 11h 43m
Length of Day
10h 48m
Full, 97% of the Moon is Illuminated
Feb 16
Full
Feb 22
Last Quarter
Mar 1
New
Mar 8
First Quarter
Mar 16
Full

Hourly Weather History & Observations

Time (CST) Temp. Windchill Dew Point Humidity Pressure Visibility Wind Dir Wind Speed Gust Speed Precip Events Conditions
12:53 AM 30.9 °F 24.3 °F 24.1 °F 76% 30.09 in 10.0 mi NW 6.9 mph - N/A   Clear
1:53 AM 32.0 °F 26.4 °F 24.1 °F 73% 30.10 in 10.0 mi NNW 5.8 mph - N/A   Clear
2:53 AM 28.0 °F 20.0 °F 23.0 °F 81% 30.12 in 10.0 mi NNW 8.1 mph - N/A   Clear
3:53 AM 28.0 °F 21.7 °F 23.0 °F 81% 30.13 in 10.0 mi NNW 5.8 mph - N/A   Clear
4:53 AM 25.0 °F 18.1 °F 21.0 °F 85% 30.13 in 10.0 mi NNW 5.8 mph - N/A   Clear
5:53 AM 27.0 °F - 24.1 °F 89% 30.14 in 10.0 mi Calm Calm - N/A   Clear
6:53 AM 25.0 °F - 21.9 °F 88% 30.15 in 7.0 mi Calm Calm - N/A   Clear
7:53 AM 24.1 °F - 21.9 °F 91% 30.15 in 6.0 mi Calm Calm - N/A   Clear
8:53 AM 32.0 °F - 27.0 °F 82% 30.19 in 8.0 mi Calm Calm - N/A   Clear
9:20 AM 30.9 °F 22.8 °F 26.1 °F 82% 30.15 in 8.0 mi East 9.2 mph - N/A   Mostly Cloudy
9:32 AM 30.9 °F 22.8 °F 26.1 °F 82% 30.15 in 7.0 mi ENE 9.2 mph - N/A   Overcast
9:53 AM 30.9 °F 20.7 °F 26.1 °F 82% 30.16 in 6.0 mi ENE 13.8 mph - N/A   Haze
10:53 AM 32.0 °F 24.8 °F 27.0 °F 82% 30.18 in 5.0 mi East 8.1 mph - N/A   Haze
11:48 AM 33.8 °F 24.8 °F 26.6 °F 75% 30.12 in 9.0 mi ESE 12.7 mph - N/A   Scattered Clouds
11:53 AM 33.1 °F 23.9 °F 27.0 °F 78% 30.15 in 10.0 mi East 12.7 mph - N/A   Scattered Clouds
12:53 PM 35.1 °F 26.9 °F 27.0 °F 72% 30.11 in 7.0 mi ESE 11.5 mph - N/A   Clear
1:53 PM 37.0 °F 28.9 °F 28.0 °F 70% 30.08 in 8.0 mi ESE 12.7 mph - N/A   Clear
2:53 PM 39.9 °F 32.1 °F 28.9 °F 65% 30.06 in 10.0 mi SE 13.8 mph - N/A   Clear
3:53 PM 39.9 °F 32.5 °F 30.0 °F 68% 30.03 in 10.0 mi SE 12.7 mph - N/A   Clear
4:53 PM 39.0 °F 32.3 °F 30.0 °F 70% 30.00 in 10.0 mi SE 10.4 mph - N/A   Clear
5:53 PM 37.0 °F 29.3 °F 28.9 °F 73% 30.00 in 10.0 mi SE 11.5 mph - N/A   Clear
6:53 PM 36.0 °F 29.0 °F 28.9 °F 76% 30.00 in 10.0 mi ESE 9.2 mph - N/A   Clear
7:53 PM 34.0 °F 25.5 °F 28.9 °F 82% 29.99 in 10.0 mi ESE 11.5 mph - N/A   Clear
8:53 PM 34.0 °F 26.6 °F 28.0 °F 79% 29.96 in 10.0 mi ESE 9.2 mph - N/A   Clear
9:53 PM 33.1 °F 24.4 °F 28.0 °F 82% 29.92 in 10.0 mi ESE 11.5 mph - N/A   Partly Cloudy
10:53 PM 35.1 °F 26.4 °F 28.0 °F 76% 29.87 in 10.0 mi SE 12.7 mph - N/A   Partly Cloudy
11:53 PM 37.0 °F 30.4 °F 28.9 °F 73% 29.85 in 10.0 mi ESE 9.2 mph - N/A   Overcast